Location: Cazarilh
(42.9578°N, 0.5819°E)
Time: 15:35:23
(UTC+00:00)

Cosmos 1092 Rocket - Pass Details

Date: 11 December 2019
Orbit: 953 x 996 km, 83.0° (Epoch: 18 January)

Event Time Altitude Azimuth Distance (km) Brightness Sun altitude
Exits shadow 05:34:21 - 343° (NNW) 3,050 6.3 -18.3°
Reaches altitude 10° 05:35:19 10° 340° (NNW) 2,702 6.0 -18.1°
Maximum altitude 05:41:07 45° 270° (W) 1,281 4.2 -17.1°
Drops below altitude 10° 05:46:52 10° 200° (SSW) 2,673 6.3 -16.1°
Sets 05:49:27 0° 194° (SSW) 3,614 7.0 -15.6°
